NOAA 16 DEB, 42401

Orbit data source: Space-Track

NOAA 16 DEB, 42401 is space debris in SSO originally from a launch on Thu, 21 Sep 2000 UTC launched from the Air Force Western Test Range (AFWTR). Debris objects in space refer to the collection of defunct objects orbiting the Earth. Examples of debris include non-operational satellites, rocket bodies, and fragments generated from explosions, collisions, or faulty payload assembly.

Loading next visibility...
Identifier
42401, 2000-055SV
Orbit
SSO
Country
Flag of USUS
Related business
Manufacturer
Unknown
Mission
Spacecraft
Bus & Motor
Unknown
Mass
Unknown
Launch date (UTC)
2000-09-21 (25 years ago)
Launch vehicle
Unknown
Launch site
Air Force Western Test Range (AFWTR)
Object type
Payload
Rocket body
Debris
Shape & HBR
Unknown
Radar Cross Section
Small (<0.1 m²)

Expand to show TLE details & history
Last TLE update: 3 days ago

TLE from 3 days ago
0 NOAA 16 DEB
1 42401U 00055SV  25239.81793707  .00009184  00000-0  21820-2 0  9991
2 42401  98.9693  90.4094 0045536 214.0903 145.7365 14.53502131495717
Epoch: 2025-08-27T19:37Z
TLE epoch observation values (Epoch: 2025-08-27T19:37:49.762Z)
Latitude
0.00001°
Longitude
179.66222°
Altitude
743.928 km
Speed
7.469 km/s
True Right ascension
06h 01m 38s
True Declination
0° 00' 00"
Sunlit
Object was in daylight at epoch
Visualization orbit readout
Latitude
Unknown
Longitude
Unknown
Altitude
Unknown
Speed
Unknown
Apparent Right ascension
Unknown
Apparent Declination
Unknown
Sunlit
N/A
Visualization observer readout
Local Sidereal Time
18:01:32
Azimuth
Unknown
Elevation
Unknown
Doppler factor
Unknown
Orbital elements
Apogee altitude
743.643 km
Perigee altitude
679.077 km
Semi-major axis
7,089.497 km
Eccentricity
0.00455
Inclination
98.9693°
RAAN
90.4094°
Arg. of periapsis
214.0903°
True anomaly
146.0289°
Mean anomaly
145.7365°
Eccentric anomaly
145.88284°
Mean motion
3.63597 °/min
Orbital period
99.01 mins
BSTAR
0.002182
Loading maneuver chart data...
Computing Atmospheric mass density...
Loading historical data...
Loading historical data...
Loading historical data...
Loading historical data...
Loading historical data...
Loading historical data...
Loading historical data...

Documentation

Showing up to 5 results
|